Погода в Непотягово

Россия / Вологодская область     59°08′43″N   39°48′54″E
темп.,
°C
ветер,
м/с
пор.,
м/с
влажн.,
%
обл.,
%
осадки,
мм/ч
давл.,
гПа
погр.,
м
14 июня, пн
пн1400:00+14юз339232 0.0 100836
03:00+13юз239224 0.0 100938
06:00+16юз258686 0.0 1010150
09:00+21зюз466384 0.1 1011653
12:00+24зюз365144 0.0 10111691
15:00+19зсз61079100 0.4 1013428
18:00+21зсз467433 0.3 1013999
21:00+16сз3487100 1.1 101459
15 июня, вт
вт1500:00+13с228497 0.0 101524
03:00+11ссв11746 0.0 101510
06:00+14вюв11705 0.0 101557
09:00+19ююв22695 0.0 1014614
12:00+23ююз24465 0.0 10111743
15:00+24зюз564292 0.0 10102082
18:00+22зюз376597 0.0 1009318
21:00+17юз35795 0.0 100887
16 июня, ср
ср1600:00+14зюз378815 0.0 100897
03:00+13ссз498321 0.0 1009230
06:00+13сз4882100 0.1 1011346
09:00+13сз279159 0.4 1012321
12:00+19сз68435 0.0 10122295
15:00+20ссз610434 0.0 10122698
18:00+18ссз5950100 0.0 1014957
21:00+14зсз5125175 0.0 1016332
17 июня, чт
чт1700:00+11зсз411575 0.0 1017200
03:00+9зсз48725 0.0 1019137
06:00+12зсз38715 0.0 1020258
09:00+17зсз46518 0.0 1021796
12:00+20сз48453 0.0 10211970
15:00+20сз475495 0.0 10211584
18:00+21зсз37561 0.0 10221168
21:00+16з22700 0.0 102311
18 июня, пт
пт1800:00+13зюз12765 0.0 102413
03:00+11зюз22825 0.0 102512
06:00+15з257314 0.0 1025140
09:00+21з35532 0.0 1024628
12:00+24з464511 0.0 10231493
15:00+25з574683 0.0 10221910
18:00+24зюз37595 0.0 1021336
21:00+19юз49750 0.0 1021144